CHINASAT 16 (SJ-13) (42662 NORAD) Tracking and Keplerian Element Data

This shows tracking and keplerian element data for the satellite.

Feedback or suggestion? Click here.




ElementValue
Catalog42662
NameCHINASAT 16 (SJ-13)
Epoch Orbit788
Epoch Day146.81335586
Epoch Year2019
RAAN95.3332
Inclination0.0745
Eccentricity0.0004018
Argument of Perigee141.6749
Mean Anonmoly50.4065
Mean Motion1.0027447
Decay Rate-3.54E-06
L11 42662U 17018A 19146.81335586 -.00000354 00000-0 00000+0 0 9999
L22 42662 0.0745 95.3332 0004018 141.6749 50.4065 1.00274470 7886

Live tracking and technical data element details for CHINASAT 16 (SJ-13) (NORAD 42662). CHINASAT 16 (SJ-13) can be tracked NOW for your location showing map with azimuth and elevation plus other details from your city location.

Track the satellite on the map from your city or location and see movement details for azimuth, elevation, latitude, longitude, range, height, and movement on the map or in text.







IsCatalogInMostPopularTable: catalog: 42662, numindb: 203
Update: records affected: 1



GetName: 42662 CHINASAT 16 (SJ-13)

Hit Count: updated at: Mon, 27 May 2019 03:53:54 GMT